TimeHST,TemperatureF,Dew PointF,Humidity,Sea Level PressureIn,VisibilityMPH,Wind Direction,Wind SpeedMPH,Gust SpeedMPH,PrecipitationIn,Events,Conditions,WindDirDegrees,DateUTC
12:54 AM,70.0,63.0,78,29.94,10.0,SE,4.6,-,N/A,,Clear,130,2013-11-07 10:54:00
1:54 AM,71.1,62.1,73,29.94,10.0,Calm,Calm,-,N/A,,Clear,0,2013-11-07 11:54:00
2:54 AM,68.0,63.0,84,29.92,10.0,Calm,Calm,-,N/A,,Clear,0,2013-11-07 12:54:00
3:54 AM,66.9,63.0,87,29.91,10.0,SSE,3.5,-,N/A,,Clear,160,2013-11-07 13:54:00
4:54 AM,68.0,63.0,84,29.92,10.0,SE,9.2,-,N/A,,Clear,130,2013-11-07 14:54:00
5:54 AM,68.0,61.0,78,29.94,10.0,SSE,3.5,-,N/A,,Clear,160,2013-11-07 15:54:00
6:54 AM,66.9,62.1,84,29.96,7.0,SSE,4.6,-,N/A,,Clear,150,2013-11-07 16:54:00
7:54 AM,72.0,64.0,76,29.98,6.0,Calm,Calm,-,N/A,,Haze,0,2013-11-07 17:54:00
8:54 AM,79.0,66.0,64,29.99,9.0,Calm,Calm,-,N/A,,Clear,0,2013-11-07 18:54:00
9:54 AM,81.0,66.0,60,30.00,6.0,Calm,Calm,-,N/A,,Smoke,0,2013-11-07 19:54:00
10:54 AM,84.9,68.0,57,29.98,10.0,NNE,5.8,-,N/A,,Partly Cloudy,30,2013-11-07 20:54:00
11:54 AM,84.9,66.0,53,29.96,10.0,Variable,3.5,-,N/A,,Partly Cloudy,0,2013-11-07 21:54:00
12:54 PM,84.9,69.1,59,29.94,10.0,ENE,6.9,-,N/A,,Scattered Clouds,70,2013-11-07 22:54:00
1:54 PM,84.9,70.0,61,29.91,10.0,NE,15.0,-,N/A,,Scattered Clouds,40,2013-11-07 23:54:00
2:54 PM,86.0,70.0,59,29.91,10.0,ENE,12.7,-,N/A,,Scattered Clouds,60,2013-11-08 00:54:00
3:54 PM,82.9,68.0,60,29.91,10.0,NE,12.7,-,N/A,,Scattered Clouds,40,2013-11-08 01:54:00
4:54 PM,80.1,69.1,69,29.93,10.0,NE,9.2,-,N/A,,Scattered Clouds,50,2013-11-08 02:54:00
5:54 PM,79.0,69.1,72,29.94,10.0,East,6.9,-,N/A,,Scattered Clouds,90,2013-11-08 03:54:00
6:54 PM,78.1,66.9,68,29.96,10.0,ENE,5.8,-,N/A,,Scattered Clouds,60,2013-11-08 04:54:00
7:54 PM,77.0,68.0,74,29.99,10.0,ENE,5.8,-,N/A,,Overcast,70,2013-11-08 05:54:00
8:54 PM,77.0,69.1,76,30.01,10.0,ESE,3.5,-,N/A,,Partly Cloudy,110,2013-11-08 06:54:00
9:54 PM,75.9,68.0,76,30.01,10.0,ENE,6.9,-,N/A,,Partly Cloudy,70,2013-11-08 07:54:00
10:54 PM,77.0,66.9,71,30.00,10.0,NE,10.4,-,N/A,,Mostly Cloudy,40,2013-11-08 08:54:00
11:54 PM,75.0,66.9,76,29.99,10.0,ENE,5.8,-,N/A,,Clear,60,2013-11-08 09:54:00